Location: Unspecified
(58.9933°N, 5.6375°E)
Time: 03:39:45
(UTC+02:00)

CZ-3 Stage 3 - Visible Passes

Search period start: 04 July 2015 00:00
Search period end: 14 July 2015 00:00
Orbit: 427 x 34799 km, 31.0° (Epoch: 01 July)

Date Brightness Start Highest point End Pass type
(mag) Time Alt. Az. Time Alt. Az. Time Alt. Az.
05 Jul 8.0 02:23:49 10° E 02:27:19 10° E 09:57:04 10° ESE visible
08 Jul 7.9 02:13:04 10° E 02:20:04 11° E 09:51:17 10° ESE visible
11 Jul 7.8 02:03:07 10° E 02:12:54 12° E 09:45:28 10° ESE visible
